Tracking 27382 objects as of 4-Jun-2023
HD Live streaming from Space Station
objects crossing your sky now

THOR ABLESTAR DEB *

Track THOR ABLESTAR DEB * now!
10-day predictions


NORAD ID: 18651
Int'l Code: 1961-015LW
Perigee: 921.4 km
Apogee: 2,103.0 km
Inclination: 65.7 °
Period: 116.1 minutes
Semi major axis: 7883 km
RCS: 0.0068 m2 (small)
Launch date: June 29, 1961
Source: United States (US)
Launch site: AIR FORCE EASTERN TEST RANGE (AFETR)

Note: This is SATELLITE DEBRIS
Your satellite tracking list
Your tracking list is empty




NASA's NSSDC Master Catalog

Two Line Element Set (TLE):
1 18651U 61015LW  23150.75880969 -.00000068  00000-0 -28962-4 0  9994
2 18651  65.6971 275.2292 0749477 330.8988  92.6502 12.40360512466209
Source of the keplerian elements: AFSPC